Bluenose II — CYJZ — position and weather

sailwx.info

Track history (hours):
 
Tides and Currents Weather Stations Pressure Air Temp Water Temp Dewpoint Dewpoint Depression Visibility Wind Speed Wind Dir Waves Ship Positions

Bluenose II (Canada)

Ship's website: http://www.schoonerbluenose2.ca/

Last reported at 2017-Jun-22 21:03 UTC. Time now 2017-Sep-24 06:59 UTC.
Position N 42°32' W 069°59'.
Warning: this ship's position is months out of date.

Length 55 m; draft 5 m.

Type: Sailing vessel. MMSI: 316245000.

Date/timePositionNaut miles runAvg speedWind from/ knotsBaromVisibWave heightAir tempDewpointWater temp
2017-Jun-22 21:03N 42°32' W 069°59'1 8.2
2017-Jun-22 20:59N 42°32' W 069°60'3 5.5
2017-Jun-22 20:30N 42°32' W 070°04'4 6.3
2017-Jun-22 19:52N 42°31' W 070°09'2 6.7
2017-Jun-22 19:30N 42°30' W 070°12'3 6.7
2017-Jun-22 19:00N 42°29' W 070°17'3 6.9
2017-Jun-22 18:30N 42°29' W 070°21'4 7.1
2017-Jun-22 18:00N 42°28' W 070°26'4 7.1
2017-Jun-22 17:30N 42°27' W 070°30'4 7.1
2017-Jun-22 17:00N 42°26' W 070°35'4 7.0
2017-Jun-22 16:30N 42°25' W 070°40'4 7.3
2017-Jun-22 16:00N 42°24' W 070°44'4 7.3
2017-Jun-22 15:30N 42°24' W 070°49'3 6.2
2017-Jun-22 15:00N 42°22' W 070°53'3 6.0
2017-Jun-22 14:30N 42°21' W 070°56'5 4.7
2017-Jun-22 13:30N 42°21' W 071°03'0 0.0
2017-Jun-22 13:00N 42°21' W 071°03'0 0.0
2017-Jun-22 12:27N 42°21' W 071°03'0 0.0
2017-Jun-22 12:00N 42°21' W 071°03'0 0.0
2017-Jun-22 11:30N 42°21' W 071°03'0 0.0
2017-Jun-22 11:00N 42°21' W 071°03'0 0.0
2017-Jun-22 10:30N 42°21' W 071°03'0 0.0
2017-Jun-22 10:00N 42°21' W 071°03'0 0.0
2017-Jun-22 09:30N 42°21' W 071°03'0 0.0
2017-Jun-22 09:00N 42°21' W 071°03'0 0.0
2017-Jun-22 08:30N 42°21' W 071°03'0 0.0
2017-Jun-22 08:00N 42°21' W 071°03'0 0.0
2017-Jun-22 07:30N 42°21' W 071°03'0 0.0
2017-Jun-22 07:00N 42°21' W 071°03'0 0.0
2017-Jun-22 06:30N 42°21' W 071°03'0 0.0
2017-Jun-22 06:00N 42°21' W 071°03'0 0.0
2017-Jun-22 05:30N 42°21' W 071°03'0 0.0
2017-Jun-22 05:00N 42°21' W 071°03'0 0.0
2017-Jun-22 04:30N 42°21' W 071°03'0 0.0
2017-Jun-22 04:00N 42°21' W 071°03'0 0.0
2017-Jun-22 03:30N 42°21' W 071°03'0 0.0
2017-Jun-22 03:00N 42°21' W 071°03'0 0.0
2017-Jun-22 02:30N 42°21' W 071°03'0 0.0
2017-Jun-22 01:57N 42°21' W 071°03'0 0.0
2017-Jun-22 01:30N 42°21' W 071°03'0 0.0
2017-Jun-22 01:00N 42°21' W 071°03'0 0.0
2017-Jun-22 00:30N 42°21' W 071°03'0 0.0
2017-Jun-21 23:57N 42°21' W 071°03'0 0.0
2017-Jun-21 23:27N 42°21' W 071°03'0 0.0
2017-Jun-21 23:00N 42°21' W 071°03'0 0.0
2017-Jun-21 22:27N 42°21' W 071°03'0 0.0
2017-Jun-21 22:00N 42°21' W 071°03'0 0.0
2017-Jun-21 21:30N 42°21' W 071°03'0 0.0
2017-Jun-21 21:00N 42°21' W 071°03'0 0.0
2017-Jun-21 20:30N 42°21' W 071°03'0 0.0
2017-Jun-21 20:00N 42°21' W 071°03'0 0.0
2017-Jun-21 19:30N 42°21' W 071°03'0 0.0
2017-Jun-21 19:00N 42°21' W 071°03'0 0.0
2017-Jun-21 18:30N 42°21' W 071°03'0 0.0
2017-Jun-21 18:00N 42°21' W 071°03'0 0.0
2017-Jun-21 17:30N 42°21' W 071°03'0 0.0
2017-Jun-21 17:00N 42°21' W 071°03'0 0.0
2017-Jun-21 16:30N 42°21' W 071°03'0 0.0
2017-Jun-21 16:00N 42°21' W 071°03'0 0.0
2017-Jun-21 15:30N 42°21' W 071°03'0 0.0
2017-Jun-21 15:00N 42°21' W 071°03'0 0.0
2017-Jun-21 14:30N 42°21' W 071°03'0 0.0
2017-Jun-21 13:30N 42°21' W 071°03'0 0.0
2017-Jun-21 12:57N 42°21' W 071°03'0 0.0
2017-Jun-21 12:30N 42°21' W 071°03'0 0.0
2017-Jun-21 12:00N 42°21' W 071°03'0 0.0
2017-Jun-21 11:30N 42°21' W 071°03'0 0.0
2017-Jun-21 11:00N 42°21' W 071°03'0 0.0
2017-Jun-21 10:30N 42°21' W 071°03'0 0.0
2017-Jun-21 10:00N 42°21' W 071°03'0 0.0
2017-Jun-21 09:30N 42°21' W 071°03'0 0.0
2017-Jun-21 09:00N 42°21' W 071°03'0 0.0
2017-Jun-21 08:30N 42°21' W 071°03'0 0.0
2017-Jun-21 08:00N 42°21' W 071°03'0 0.0
2017-Jun-21 07:30N 42°21' W 071°03'0 0.0
2017-Jun-21 07:00N 42°21' W 071°03'0 0.0
2017-Jun-21 06:30N 42°21' W 071°03'0 0.0
2017-Jun-21 05:59N 42°21' W 071°03'0 0.0
2017-Jun-21 05:30N 42°21' W 071°03'0 0.0
2017-Jun-21 04:59N 42°21' W 071°03'0 0.0
2017-Jun-21 04:27N 42°21' W 071°03'0 0.0
2017-Jun-21 04:00N 42°21' W 071°03'0 0.0
2017-Jun-21 03:30N 42°21' W 071°03'0 0.0
2017-Jun-21 03:00N 42°21' W 071°03'0 0.0
2017-Jun-21 02:30N 42°21' W 071°03'0 0.0
2017-Jun-21 02:00N 42°21' W 071°03'0 0.0
2017-Jun-21 01:30N 42°21' W 071°03'0 0.0
2017-Jun-21 01:00N 42°21' W 071°03'0 0.0
2017-Jun-21 00:29N 42°21' W 071°03'0 0.0
2017-Jun-20 23:59N 42°21' W 071°03'0 0.0
2017-Jun-20 23:30N 42°21' W 071°03'0 0.0
2017-Jun-20 22:57N 42°21' W 071°03'0 0.0
2017-Jun-20 22:30N 42°21' W 071°03'0 0.0
2017-Jun-20 21:59N 42°21' W 071°03'0 0.0
2017-Jun-20 21:30N 42°21' W 071°03'0 0.0
2017-Jun-20 21:00N 42°21' W 071°03'0 0.0
2017-Jun-20 20:30N 42°21' W 071°03'0 0.0
2017-Jun-20 19:57N 42°21' W 071°03'0 0.0
2017-Jun-20 19:27N 42°21' W 071°03'0 0.0
2017-Jun-20 19:00N 42°21' W 071°03'0 0.0
2017-Jun-20 18:30N 42°21' W 071°03'0 0.0
2017-Jun-20 18:00N 42°21' W 071°03'0 0.0
2017-Jun-20 17:30N 42°21' W 071°03'0 0.0
2017-Jun-20 16:59N 42°21' W 071°03'0 0.0
2017-Jun-20 16:29N 42°21' W 071°03'0 0.0
2017-Jun-20 15:59N 42°21' W 071°03'0 0.0
2017-Jun-20 15:30N 42°21' W 071°03'0 0.0
2017-Jun-20 14:59N 42°21' W 071°03'0 0.0
2017-Jun-20 13:59N 42°21' W 071°03'0 0.0
2017-Jun-20 13:30N 42°21' W 071°03'0 0.0
2017-Jun-20 13:00N 42°21' W 071°03'0 0.0
2017-Jun-20 12:29N 42°21' W 071°03'0 0.0
2017-Jun-20 11:59N 42°21' W 071°03'0 0.0
2017-Jun-20 11:29N 42°21' W 071°03'0 0.0
2017-Jun-20 10:59N 42°21' W 071°03'0 0.0
2017-Jun-20 10:30N 42°21' W 071°03'0 0.0
2017-Jun-20 09:59N 42°21' W 071°03'0 0.0
2017-Jun-20 09:29N 42°21' W 071°03'0 0.0
2017-Jun-20 09:00N 42°21' W 071°03'0 0.0
2017-Jun-20 08:29N 42°21' W 071°03'0 0.0
2017-Jun-20 07:59N 42°21' W 071°03'0 0.0
2017-Jun-20 07:29N 42°21' W 071°03'0 0.0
2017-Jun-20 07:00N 42°21' W 071°03'0 0.0
2017-Jun-20 06:29N 42°21' W 071°03'0 0.0
2017-Jun-20 05:59N 42°21' W 071°03'0 0.0
2017-Jun-20 05:29N 42°21' W 071°03'0 0.0
2017-Jun-20 04:59N 42°21' W 071°03'0 0.0
2017-Jun-20 04:30N 42°21' W 071°03'0 0.0
2017-Jun-20 03:59N 42°21' W 071°03'0 0.0
2017-Jun-20 03:30N 42°21' W 071°03'0 0.0
2017-Jun-20 02:59N 42°21' W 071°03'0 0.0
2017-Jun-20 02:29N 42°21' W 071°03'0 0.0
2017-Jun-20 01:59N 42°21' W 071°03'0 0.0
2017-Jun-20 01:29N 42°21' W 071°03'0 0.0
2017-Jun-20 00:59N 42°21' W 071°03'0 0.0
2017-Jun-20 00:29N 42°21' W 071°03'0 0.0
2017-Jun-19 23:59N 42°21' W 071°03'0 0.0
2017-Jun-19 23:29N 42°21' W 071°03'0 0.0
2017-Jun-19 22:59N 42°21' W 071°03'0 0.0
2017-Jun-19 22:29N 42°21' W 071°03'0 0.0
2017-Jun-19 21:59N 42°21' W 071°03'0 0.0
2017-Jun-19 21:29N 42°21' W 071°03'0 0.0
2017-Jun-19 20:59N 42°21' W 071°03'0 0.0
2017-Jun-19 20:29N 42°21' W 071°03'0 0.0
2017-Jun-19 19:59N 42°21' W 071°03'0 0.0
2017-Jun-19 19:29N 42°21' W 071°03'0 0.0
2017-Jun-19 18:59N 42°21' W 071°03'0 0.0
2017-Jun-19 18:29N 42°21' W 071°03'0 0.0
2017-Jun-19 17:59N 42°21' W 071°03'0 0.0
2017-Jun-19 17:29N 42°21' W 071°03'0 0.0
2017-Jun-19 16:59N 42°21' W 071°03'0 0.0
2017-Jun-19 16:29N 42°21' W 071°03'0 0.0
2017-Jun-19 15:59N 42°21' W 071°03'0 0.0
2017-Jun-19 15:29N 42°21' W 071°03'0 0.0
2017-Jun-19 14:56N 42°21' W 071°03'0 0.0
2017-Jun-19 14:29N 42°21' W 071°03'0 0.0
2017-Jun-19 13:29N 42°21' W 071°03'0 0.0
2017-Jun-19 12:59N 42°21' W 071°03'0 0.0
2017-Jun-19 12:29N 42°21' W 071°03'0 0.0
2017-Jun-19 11:59N 42°21' W 071°03'0 0.0
2017-Jun-19 11:29N 42°21' W 071°03'0 0.0
2017-Jun-19 10:59N 42°21' W 071°03'0 0.0
2017-Jun-19 10:29N 42°21' W 071°03'0 0.0
2017-Jun-19 09:59N 42°21' W 071°03'0 0.0
2017-Jun-19 09:29N 42°21' W 071°03'0 0.0
2017-Jun-19 08:59N 42°21' W 071°03'0 0.0
2017-Jun-19 08:29N 42°21' W 071°03'0 0.0
2017-Jun-19 07:59N 42°21' W 071°03'0 0.0
2017-Jun-19 07:29N 42°21' W 071°03'0 0.0
2017-Jun-19 06:59N 42°21' W 071°03'0 0.0
2017-Jun-19 06:29N 42°21' W 071°03'0 0.0
2017-Jun-19 05:59N 42°21' W 071°03'0 0.0
2017-Jun-19 05:26N 42°21' W 071°03'0 0.0
2017-Jun-19 04:59N 42°21' W 071°03'0 0.0
2017-Jun-19 04:29N 42°21' W 071°03'0 0.0
2017-Jun-19 03:59N 42°21' W 071°03'0 0.0
2017-Jun-19 03:29N 42°21' W 071°03'0 0.0
2017-Jun-19 02:59N 42°21' W 071°03'0 0.0
2017-Jun-19 02:29N 42°21' W 071°03'0 0.0
2017-Jun-19 01:59N 42°21' W 071°03'0 0.0
2017-Jun-19 01:29N 42°21' W 071°03'0 0.0
2017-Jun-19 00:59N 42°21' W 071°03'0 0.0
2017-Jun-19 00:29N 42°21' W 071°03'0 0.0
2017-Jun-18 23:59N 42°21' W 071°03'0 0.0
2017-Jun-18 23:29N 42°21' W 071°03'0 0.0
2017-Jun-18 22:59N 42°21' W 071°03'0 0.0
2017-Jun-18 22:29N 42°21' W 071°03'0 0.0
2017-Jun-18 21:59N 42°21' W 071°03'0 0.0
2017-Jun-18 21:29N 42°21' W 071°03'0 0.0
2017-Jun-18 20:59N 42°21' W 071°03'0 0.0
2017-Jun-18 20:29N 42°21' W 071°03'0 0.0
2017-Jun-18 19:59N 42°21' W 071°03'0 0.0
2017-Jun-18 19:29N 42°21' W 071°03'0 0.0
2017-Jun-18 18:59N 42°21' W 071°03'0 0.0
2017-Jun-18 18:29N 42°21' W 071°03'0 0.0
2017-Jun-18 17:59N 42°21' W 071°03'0 0.0
2017-Jun-18 17:29N 42°21' W 071°03'0 0.0
2017-Jun-18 16:59N 42°21' W 071°03'0 0.0
2017-Jun-18 16:29N 42°21' W 071°03'0 0.0
2017-Jun-18 15:59N 42°21' W 071°03'0 0.0
2017-Jun-18 15:29N 42°21' W 071°03'0 0.0
2017-Jun-18 14:47N 42°21' W 071°03'0 0.0
2017-Jun-18 13:59N 42°21' W 071°03'0 0.0
2017-Jun-18 13:29N 42°21' W 071°03'0 0.0
2017-Jun-18 12:59N 42°21' W 071°03'0 0.0
2017-Jun-18 12:29N 42°21' W 071°03'0 0.0
2017-Jun-18 11:59N 42°21' W 071°03'0 0.0
2017-Jun-18 11:29N 42°21' W 071°03'0 0.0
2017-Jun-18 10:59N 42°21' W 071°03'0 0.0
2017-Jun-18 10:29N 42°21' W 071°03'0 0.0
2017-Jun-18 09:59N 42°21' W 071°03'0 0.0
2017-Jun-18 09:29N 42°21' W 071°03'0 0.0
2017-Jun-18 08:59N 42°21' W 071°03'0 0.0
2017-Jun-18 08:29N 42°21' W 071°03'0 0.0
2017-Jun-18 07:59N 42°21' W 071°03'0 0.0
2017-Jun-18 07:29N 42°21' W 071°03'0 0.0
2017-Jun-18 06:59N 42°21' W 071°03'0 0.0
2017-Jun-18 06:29N 42°21' W 071°03'0 0.0
2017-Jun-18 05:59N 42°21' W 071°03'0 0.0
2017-Jun-18 05:29N 42°21' W 071°03'0 0.0
2017-Jun-18 04:59N 42°21' W 071°03'0 0.0
2017-Jun-18 04:29N 42°21' W 071°03'0 0.0
2017-Jun-18 03:59N 42°21' W 071°03'0 0.0
2017-Jun-18 03:29N 42°21' W 071°03'0 0.0
2017-Jun-18 02:59N 42°21' W 071°03'0 0.0
2017-Jun-18 02:29N 42°21' W 071°03'0 0.0
2017-Jun-18 01:59N 42°21' W 071°03'0 0.0
2017-Jun-18 01:26N 42°21' W 071°03'0 0.0
2017-Jun-18 00:59N 42°21' W 071°03'0 0.0
2017-Jun-18 00:29N 42°21' W 071°03'0 0.0
2017-Jun-17 23:59N 42°21' W 071°03'0 0.0
2017-Jun-17 23:29N 42°21' W 071°03'0 0.0
2017-Jun-17 22:59N 42°21' W 071°03'0 0.0
2017-Jun-17 22:26N 42°21' W 071°03'0 0.0
2017-Jun-17 21:59N 42°21' W 071°03'0 0.0
2017-Jun-17 21:29N 42°21' W 071°03'0 0.0
2017-Jun-17 20:59N 42°21' W 071°03'0 0.0
2017-Jun-17 20:29N 42°21' W 071°03'0 0.0
2017-Jun-17 19:59N 42°21' W 071°03'0 0.0
2017-Jun-17 19:29N 42°21' W 071°03'0 0.0
2017-Jun-17 18:59N 42°21' W 071°03'0 0.0
2017-Jun-17 18:29N 42°21' W 071°03'0 0.0
2017-Jun-17 17:59N 42°21' W 071°03'0 0.0
2017-Jun-17 17:26N 42°21' W 071°03'0 0.0
2017-Jun-17 16:59N 42°21' W 071°03'0 0.0
2017-Jun-17 16:30N 42°21' W 071°03'1 1.0
2017-Jun-17 16:00N 42°22' W 071°03'2 3.4
2017-Jun-17 15:30N 42°21' W 071°01'3 5.2
2017-Jun-17 15:00N 42°20' W 070°57'3 6.6
2017-Jun-17 14:30N 42°22' W 070°54'2 2.2
2017-Jun-17 13:30N 42°24' W 070°52'0 0.0
2017-Jun-17 12:58N 42°24' W 070°52'0 0.1
2017-Jun-17 12:30N 42°24' W 070°52'0 0.1
2017-Jun-17 11:59N 42°24' W 070°52'0 0.0
2017-Jun-17 11:29N 42°24' W 070°52'0 0.0
2017-Jun-17 10:59N 42°24' W 070°52'0 0.0
2017-Jun-17 10:30N 42°24' W 070°52'0 0.0
2017-Jun-17 10:00N 42°24' W 070°52'0 0.0
2017-Jun-17 09:30N 42°24' W 070°52'0 0.0
2017-Jun-17 09:00N 42°24' W 070°52'0 0.0
2017-Jun-17 08:30N 42°24' W 070°52'0 0.0
2017-Jun-17 08:00N 42°24' W 070°52'0 0.0
2017-Jun-17 07:30N 42°24' W 070°52'0 0.0
2017-Jun-17 07:00N 42°24' W 070°52'0 0.0
2017-Jun-17 06:30N 42°24' W 070°52'0 0.0
2017-Jun-17 06:00N 42°24' W 070°52'0 0.0
2017-Jun-17 05:30N 42°24' W 070°52'0 0.0
2017-Jun-17 05:00N 42°24' W 070°52'0 0.0
2017-Jun-17 04:30N 42°24' W 070°52'0 0.0
2017-Jun-17 04:00N 42°24' W 070°52'0 0.0
2017-Jun-17 03:31N 42°24' W 070°52'0 0.0
2017-Jun-17 03:00N 42°24' W 070°52'0 0.0
2017-Jun-17 02:30N 42°24' W 070°52'0 0.0
2017-Jun-17 02:00N 42°24' W 070°52'0 0.0
2017-Jun-17 01:28N 42°24' W 070°52'0 0.0
2017-Jun-17 00:59N 42°24' W 070°52'0 0.0
2017-Jun-17 00:31N 42°24' W 070°52'0 0.0
2017-Jun-16 23:58N 42°24' W 070°52'0 0.0
2017-Jun-16 23:28N 42°24' W 070°52'0 0.0
2017-Jun-16 22:58N 42°24' W 070°52'0 0.0
2017-Jun-16 22:28N 42°24' W 070°52'0 0.0
2017-Jun-16 21:55N 42°24' W 070°52'0 0.1
2017-Jun-16 21:28N 42°24' W 070°52'0 0.0
2017-Jun-16 20:55N 42°24' W 070°52'0 0.0
2017-Jun-16 20:30N 42°24' W 070°52'0 0.0
2017-Jun-16 20:00N 42°24' W 070°52'0 0.0
2017-Jun-16 19:30N 42°24' W 070°52'0 0.0
2017-Jun-16 19:00N 42°24' W 070°52'0 0.0
2017-Jun-16 18:27N 42°24' W 070°52'0 0.0
2017-Jun-16 17:59N 42°24' W 070°52'0 0.0
2017-Jun-16 17:29N 42°24' W 070°52'0 0.0
2017-Jun-16 16:59N 42°24' W 070°52'0 0.0
2017-Jun-16 16:30N 42°24' W 070°52'0 0.0
2017-Jun-16 15:58N 42°24' W 070°52'0 0.0
2017-Jun-16 15:25N 42°24' W 070°52'0 0.0
2017-Jun-16 14:58N 42°24' W 070°52'0 0.0
2017-Jun-16 13:58N 42°24' W 070°52'0 0.0
2017-Jun-16 13:25N 42°24' W 070°52'0 0.0
2017-Jun-16 12:58N 42°24' W 070°52'0 0.3
2017-Jun-16 12:31N 42°24' W 070°52'2 3.7
2017-Jun-16 12:00N 42°25' W 070°50'2 3.8
2017-Jun-16 11:31N 42°26' W 070°48'2 4.0
2017-Jun-16 11:00N 42°28' W 070°46'2 4.9
2017-Jun-16 10:31N 42°29' W 070°44'4 7.2
2017-Jun-16 10:00N 42°33' W 070°41'3 5.5
2017-Jun-16 09:30N 42°35' W 070°41'0 0.7
2017-Jun-16 08:56N 42°36' W 070°40'0 0.0
2017-Jun-16 08:29N 42°36' W 070°40'0 0.0
2017-Jun-16 07:59N 42°35' W 070°40'0 0.0
2017-Jun-16 07:26N 42°36' W 070°40'0 0.0
2017-Jun-16 06:59N 42°36' W 070°40'0 0.0
2017-Jun-16 06:29N 42°36' W 070°40'0 0.0
2017-Jun-16 05:50N 42°35' W 070°40'0 0.0
2017-Jun-16 05:29N 42°35' W 070°40'0 0.0
2017-Jun-16 04:59N 42°36' W 070°40'0 0.0
2017-Jun-16 04:29N 42°36' W 070°40'0 0.0
2017-Jun-16 03:59N 42°36' W 070°40'0 0.0
2017-Jun-16 03:29N 42°36' W 070°40'0 0.0
2017-Jun-16 02:56N 42°36' W 070°40'0 0.0
2017-Jun-16 02:29N 42°36' W 070°40'0 0.0
2017-Jun-16 01:59N 42°36' W 070°40'0 0.0
2017-Jun-16 01:29N 42°36' W 070°40'0 0.0
2017-Jun-16 00:59N 42°35' W 070°40'0 0.0
2017-Jun-16 00:26N 42°36' W 070°40'0 0.0
2017-Jun-15 23:56N 42°36' W 070°40'0 0.0
2017-Jun-15 23:29N 42°35' W 070°40'0 0.0
2017-Jun-15 22:59N 42°35' W 070°40'0 0.0
2017-Jun-15 22:30N 42°35' W 070°40'0 0.0
2017-Jun-15 22:00N 42°35' W 070°40'0 0.1
2017-Jun-15 21:30N 42°35' W 070°40'1 2.9
2017-Jun-15 21:00N 42°34' W 070°41'2 3.5
2017-Jun-15 20:30N 42°32' W 070°41'1 1.1
2017-Jun-15 20:00N 42°33' W 070°41'1 2.6
2017-Jun-15 19:30N 42°34' W 070°40'5 9.2
2017-Jun-15 19:00N 42°37' W 070°35'0 1.0
2017-Jun-15 18:30N 42°36' W 070°35'510.3
2017-Jun-15 18:00N 42°33' W 070°40'510.2
2017-Jun-15 17:30N 42°29' W 070°45'2 3.8
2017-Jun-15 17:00N 42°30' W 070°43'5 9.4
2017-Jun-15 16:30N 42°31' W 070°37'4 7.6
2017-Jun-15 16:00N 42°35' W 070°34'1 2.8
2017-Jun-15 15:30N 42°35' W 070°36'2 4.8
2017-Jun-15 15:00N 42°34' W 070°39'2 2.0
2017-Jun-15 14:00N 42°36' W 070°40'1 2.3
2017-Jun-15 13:30N 42°35' W 070°41'2 4.7
2017-Jun-15 13:00N 42°34' W 070°38'2 4.7
2017-Jun-15 12:30N 42°34' W 070°35'2 4.7
2017-Jun-15 12:00N 42°34' W 070°32'2 4.9
2017-Jun-15 11:30N 42°34' W 070°28'2 4.2
2017-Jun-15 11:00N 42°34' W 070°26'2 4.8
2017-Jun-15 10:30N 42°35' W 070°22'2 4.6
2017-Jun-15 10:00N 42°34' W 070°19'2 4.3
2017-Jun-15 09:30N 42°35' W 070°16'2 4.0
2017-Jun-15 09:00N 42°35' W 070°14'2 3.9
2017-Jun-15 08:30N 42°35' W 070°11'2 4.1
2017-Jun-15 08:00N 42°36' W 070°08'2 4.2
2017-Jun-15 07:30N 42°36' W 070°05'2 4.4
2017-Jun-15 07:00N 42°36' W 070°03'2 4.2
2017-Jun-15 06:30N 42°37' W 069°60'2 4.4
2017-Jun-15 06:00N 42°37' W 069°57'2 4.4
2017-Jun-15 05:30N 42°38' W 069°54'2 4.4
2017-Jun-15 05:00N 42°38' W 069°51'2 4.4
2017-Jun-15 04:30N 42°38' W 069°48'8 4.1
2017-Jun-15 02:35N 42°38' W 069°37'1 4.1
2017-Jun-15 02:27N 42°38' W 069°37'2 4.1
2017-Jun-15 02:00N 42°38' W 069°34'2 4.0
2017-Jun-15 01:30N 42°38' W 069°31'2 3.9
2017-Jun-15 01:00N 42°38' W 069°29'2 4.1
2017-Jun-15 00:30N 42°38' W 069°26'  
Track history (hours):
 
Tides and Currents Weather Stations Pressure Air Temp Water Temp Dewpoint Dewpoint Depression Visibility Wind Speed Wind Dir Waves Ship Positions

Bluenose II (Canada)

Ship's website: http://www.schoonerbluenose2.ca/

Last reported at 2017-Jun-22 21:03 UTC. Time now 2017-Sep-24 06:59 UTC.
Position N 42°32' W 069°59'.
Warning: this ship's position is months out of date.

Length 55 m; draft 5 m.

Type: Sailing vessel. MMSI: 316245000.

Date/timePositionNaut miles runAvg speedWind from/ knotsBaromVisibWave heightAir tempDewpointWater temp
2017-Jun-22 21:03N 42°32' W 069°59'1 8.2
2017-Jun-22 20:59N 42°32' W 069°60'3 5.5
2017-Jun-22 20:30N 42°32' W 070°04'4 6.3
2017-Jun-22 19:52N 42°31' W 070°09'2 6.7
2017-Jun-22 19:30N 42°30' W 070°12'3 6.7
2017-Jun-22 19:00N 42°29' W 070°17'3 6.9
2017-Jun-22 18:30N 42°29' W 070°21'4 7.1
2017-Jun-22 18:00N 42°28' W 070°26'4 7.1
2017-Jun-22 17:30N 42°27' W 070°30'4 7.1
2017-Jun-22 17:00N 42°26' W 070°35'4 7.0
2017-Jun-22 16:30N 42°25' W 070°40'4 7.3
2017-Jun-22 16:00N 42°24' W 070°44'4 7.3
2017-Jun-22 15:30N 42°24' W 070°49'3 6.2
2017-Jun-22 15:00N 42°22' W 070°53'3 6.0
2017-Jun-22 14:30N 42°21' W 070°56'5 4.7
2017-Jun-22 13:30N 42°21' W 071°03'0 0.0
2017-Jun-22 13:00N 42°21' W 071°03'0 0.0
2017-Jun-22 12:27N 42°21' W 071°03'0 0.0
2017-Jun-22 12:00N 42°21' W 071°03'0 0.0
2017-Jun-22 11:30N 42°21' W 071°03'0 0.0
2017-Jun-22 11:00N 42°21' W 071°03'0 0.0
2017-Jun-22 10:30N 42°21' W 071°03'0 0.0
2017-Jun-22 10:00N 42°21' W 071°03'0 0.0
2017-Jun-22 09:30N 42°21' W 071°03'0 0.0
2017-Jun-22 09:00N 42°21' W 071°03'0 0.0
2017-Jun-22 08:30N 42°21' W 071°03'0 0.0
2017-Jun-22 08:00N 42°21' W 071°03'0 0.0
2017-Jun-22 07:30N 42°21' W 071°03'0 0.0
2017-Jun-22 07:00N 42°21' W 071°03'0 0.0
2017-Jun-22 06:30N 42°21' W 071°03'0 0.0
2017-Jun-22 06:00N 42°21' W 071°03'0 0.0
2017-Jun-22 05:30N 42°21' W 071°03'0 0.0
2017-Jun-22 05:00N 42°21' W 071°03'0 0.0
2017-Jun-22 04:30N 42°21' W 071°03'0 0.0
2017-Jun-22 04:00N 42°21' W 071°03'0 0.0
2017-Jun-22 03:30N 42°21' W 071°03'0 0.0
2017-Jun-22 03:00N 42°21' W 071°03'0 0.0
2017-Jun-22 02:30N 42°21' W 071°03'0 0.0
2017-Jun-22 01:57N 42°21' W 071°03'0 0.0
2017-Jun-22 01:30N 42°21' W 071°03'0 0.0
2017-Jun-22 01:00N 42°21' W 071°03'0 0.0
2017-Jun-22 00:30N 42°21' W 071°03'0 0.0
2017-Jun-21 23:57N 42°21' W 071°03'0 0.0
2017-Jun-21 23:27N 42°21' W 071°03'0 0.0
2017-Jun-21 23:00N 42°21' W 071°03'0 0.0
2017-Jun-21 22:27N 42°21' W 071°03'0 0.0
2017-Jun-21 22:00N 42°21' W 071°03'0 0.0
2017-Jun-21 21:30N 42°21' W 071°03'0 0.0
2017-Jun-21 21:00N 42°21' W 071°03'0 0.0
2017-Jun-21 20:30N 42°21' W 071°03'0 0.0
2017-Jun-21 20:00N 42°21' W 071°03'0 0.0
2017-Jun-21 19:30N 42°21' W 071°03'0 0.0
2017-Jun-21 19:00N 42°21' W 071°03'0 0.0
2017-Jun-21 18:30N 42°21' W 071°03'0 0.0
2017-Jun-21 18:00N 42°21' W 071°03'0 0.0
2017-Jun-21 17:30N 42°21' W 071°03'0 0.0
2017-Jun-21 17:00N 42°21' W 071°03'0 0.0
2017-Jun-21 16:30N 42°21' W 071°03'0 0.0
2017-Jun-21 16:00N 42°21' W 071°03'0 0.0
2017-Jun-21 15:30N 42°21' W 071°03'0 0.0
2017-Jun-21 15:00N 42°21' W 071°03'0 0.0
2017-Jun-21 14:30N 42°21' W 071°03'0 0.0
2017-Jun-21 13:30N 42°21' W 071°03'0 0.0
2017-Jun-21 12:57N 42°21' W 071°03'0 0.0
2017-Jun-21 12:30N 42°21' W 071°03'0 0.0
2017-Jun-21 12:00N 42°21' W 071°03'0 0.0
2017-Jun-21 11:30N 42°21' W 071°03'0 0.0
2017-Jun-21 11:00N 42°21' W 071°03'0 0.0
2017-Jun-21 10:30N 42°21' W 071°03'0 0.0
2017-Jun-21 10:00N 42°21' W 071°03'0 0.0
2017-Jun-21 09:30N 42°21' W 071°03'0 0.0
2017-Jun-21 09:00N 42°21' W 071°03'0 0.0
2017-Jun-21 08:30N 42°21' W 071°03'0 0.0
2017-Jun-21 08:00N 42°21' W 071°03'0 0.0
2017-Jun-21 07:30N 42°21' W 071°03'0 0.0
2017-Jun-21 07:00N 42°21' W 071°03'0 0.0
2017-Jun-21 06:30N 42°21' W 071°03'0 0.0
2017-Jun-21 05:59N 42°21' W 071°03'0 0.0
2017-Jun-21 05:30N 42°21' W 071°03'0 0.0
2017-Jun-21 04:59N 42°21' W 071°03'0 0.0
2017-Jun-21 04:27N 42°21' W 071°03'0 0.0
2017-Jun-21 04:00N 42°21' W 071°03'0 0.0
2017-Jun-21 03:30N 42°21' W 071°03'0 0.0
2017-Jun-21 03:00N 42°21' W 071°03'0 0.0
2017-Jun-21 02:30N 42°21' W 071°03'0 0.0
2017-Jun-21 02:00N 42°21' W 071°03'0 0.0
2017-Jun-21 01:30N 42°21' W 071°03'0 0.0
2017-Jun-21 01:00N 42°21' W 071°03'0 0.0
2017-Jun-21 00:29N 42°21' W 071°03'0 0.0
2017-Jun-20 23:59N 42°21' W 071°03'0 0.0
2017-Jun-20 23:30N 42°21' W 071°03'0 0.0
2017-Jun-20 22:57N 42°21' W 071°03'0 0.0
2017-Jun-20 22:30N 42°21' W 071°03'0 0.0
2017-Jun-20 21:59N 42°21' W 071°03'0 0.0
2017-Jun-20 21:30N 42°21' W 071°03'0 0.0
2017-Jun-20 21:00N 42°21' W 071°03'0 0.0
2017-Jun-20 20:30N 42°21' W 071°03'0 0.0
2017-Jun-20 19:57N 42°21' W 071°03'0 0.0
2017-Jun-20 19:27N 42°21' W 071°03'0 0.0
2017-Jun-20 19:00N 42°21' W 071°03'0 0.0
2017-Jun-20 18:30N 42°21' W 071°03'0 0.0
2017-Jun-20 18:00N 42°21' W 071°03'0 0.0
2017-Jun-20 17:30N 42°21' W 071°03'0 0.0
2017-Jun-20 16:59N 42°21' W 071°03'0 0.0
2017-Jun-20 16:29N 42°21' W 071°03'0 0.0
2017-Jun-20 15:59N 42°21' W 071°03'0 0.0
2017-Jun-20 15:30N 42°21' W 071°03'0 0.0
2017-Jun-20 14:59N 42°21' W 071°03'0 0.0
2017-Jun-20 13:59N 42°21' W 071°03'0 0.0
2017-Jun-20 13:30N 42°21' W 071°03'0 0.0
2017-Jun-20 13:00N 42°21' W 071°03'0 0.0
2017-Jun-20 12:29N 42°21' W 071°03'0 0.0
2017-Jun-20 11:59N 42°21' W 071°03'0 0.0
2017-Jun-20 11:29N 42°21' W 071°03'0 0.0
2017-Jun-20 10:59N 42°21' W 071°03'0 0.0
2017-Jun-20 10:30N 42°21' W 071°03'0 0.0
2017-Jun-20 09:59N 42°21' W 071°03'0 0.0
2017-Jun-20 09:29N 42°21' W 071°03'0 0.0
2017-Jun-20 09:00N 42°21' W 071°03'0 0.0
2017-Jun-20 08:29N 42°21' W 071°03'0 0.0
2017-Jun-20 07:59N 42°21' W 071°03'0 0.0
2017-Jun-20 07:29N 42°21' W 071°03'0 0.0
2017-Jun-20 07:00N 42°21' W 071°03'0 0.0
2017-Jun-20 06:29N 42°21' W 071°03'0 0.0
2017-Jun-20 05:59N 42°21' W 071°03'0 0.0
2017-Jun-20 05:29N 42°21' W 071°03'0 0.0
2017-Jun-20 04:59N 42°21' W 071°03'0 0.0
2017-Jun-20 04:30N 42°21' W 071°03'0 0.0
2017-Jun-20 03:59N 42°21' W 071°03'0 0.0
2017-Jun-20 03:30N 42°21' W 071°03'0 0.0
2017-Jun-20 02:59N 42°21' W 071°03'0 0.0
2017-Jun-20 02:29N 42°21' W 071°03'0 0.0
2017-Jun-20 01:59N 42°21' W 071°03'0 0.0
2017-Jun-20 01:29N 42°21' W 071°03'0 0.0
2017-Jun-20 00:59N 42°21' W 071°03'0 0.0
2017-Jun-20 00:29N 42°21' W 071°03'0 0.0
2017-Jun-19 23:59N 42°21' W 071°03'0 0.0
2017-Jun-19 23:29N 42°21' W 071°03'0 0.0
2017-Jun-19 22:59N 42°21' W 071°03'0 0.0
2017-Jun-19 22:29N 42°21' W 071°03'0 0.0
2017-Jun-19 21:59N 42°21' W 071°03'0 0.0
2017-Jun-19 21:29N 42°21' W 071°03'0 0.0
2017-Jun-19 20:59N 42°21' W 071°03'0 0.0
2017-Jun-19 20:29N 42°21' W 071°03'0 0.0
2017-Jun-19 19:59N 42°21' W 071°03'0 0.0
2017-Jun-19 19:29N 42°21' W 071°03'0 0.0
2017-Jun-19 18:59N 42°21' W 071°03'0 0.0
2017-Jun-19 18:29N 42°21' W 071°03'0 0.0
2017-Jun-19 17:59N 42°21' W 071°03'0 0.0
2017-Jun-19 17:29N 42°21' W 071°03'0 0.0
2017-Jun-19 16:59N 42°21' W 071°03'0 0.0
2017-Jun-19 16:29N 42°21' W 071°03'0 0.0
2017-Jun-19 15:59N 42°21' W 071°03'0 0.0
2017-Jun-19 15:29N 42°21' W 071°03'0 0.0
2017-Jun-19 14:56N 42°21' W 071°03'0 0.0
2017-Jun-19 14:29N 42°21' W 071°03'0 0.0
2017-Jun-19 13:29N 42°21' W 071°03'0 0.0
2017-Jun-19 12:59N 42°21' W 071°03'0 0.0
2017-Jun-19 12:29N 42°21' W 071°03'0 0.0
2017-Jun-19 11:59N 42°21' W 071°03'0 0.0
2017-Jun-19 11:29N 42°21' W 071°03'0 0.0
2017-Jun-19 10:59N 42°21' W 071°03'0 0.0
2017-Jun-19 10:29N 42°21' W 071°03'0 0.0
2017-Jun-19 09:59N 42°21' W 071°03'0 0.0
2017-Jun-19 09:29N 42°21' W 071°03'0 0.0
2017-Jun-19 08:59N 42°21' W 071°03'0 0.0
2017-Jun-19 08:29N 42°21' W 071°03'0 0.0
2017-Jun-19 07:59N 42°21' W 071°03'0 0.0
2017-Jun-19 07:29N 42°21' W 071°03'0 0.0
2017-Jun-19 06:59N 42°21' W 071°03'0 0.0
2017-Jun-19 06:29N 42°21' W 071°03'0 0.0
2017-Jun-19 05:59N 42°21' W 071°03'0 0.0
2017-Jun-19 05:26N 42°21' W 071°03'0 0.0
2017-Jun-19 04:59N 42°21' W 071°03'0 0.0
2017-Jun-19 04:29N 42°21' W 071°03'0 0.0
2017-Jun-19 03:59N 42°21' W 071°03'0 0.0
2017-Jun-19 03:29N 42°21' W 071°03'0 0.0
2017-Jun-19 02:59N 42°21' W 071°03'0 0.0
2017-Jun-19 02:29N 42°21' W 071°03'0 0.0
2017-Jun-19 01:59N 42°21' W 071°03'0 0.0
2017-Jun-19 01:29N 42°21' W 071°03'0 0.0
2017-Jun-19 00:59N 42°21' W 071°03'0 0.0
2017-Jun-19 00:29N 42°21' W 071°03'0 0.0
2017-Jun-18 23:59N 42°21' W 071°03'0 0.0
2017-Jun-18 23:29N 42°21' W 071°03'0 0.0
2017-Jun-18 22:59N 42°21' W 071°03'0 0.0
2017-Jun-18 22:29N 42°21' W 071°03'0 0.0
2017-Jun-18 21:59N 42°21' W 071°03'0 0.0
2017-Jun-18 21:29N 42°21' W 071°03'0 0.0
2017-Jun-18 20:59N 42°21' W 071°03'0 0.0
2017-Jun-18 20:29N 42°21' W 071°03'0 0.0
2017-Jun-18 19:59N 42°21' W 071°03'0 0.0
2017-Jun-18 19:29N 42°21' W 071°03'0 0.0
2017-Jun-18 18:59N 42°21' W 071°03'0 0.0
2017-Jun-18 18:29N 42°21' W 071°03'0 0.0
2017-Jun-18 17:59N 42°21' W 071°03'0 0.0
2017-Jun-18 17:29N 42°21' W 071°03'0 0.0
2017-Jun-18 16:59N 42°21' W 071°03'0 0.0
2017-Jun-18 16:29N 42°21' W 071°03'0 0.0
2017-Jun-18 15:59N 42°21' W 071°03'0 0.0
2017-Jun-18 15:29N 42°21' W 071°03'0 0.0
2017-Jun-18 14:47N 42°21' W 071°03'0 0.0
2017-Jun-18 13:59N 42°21' W 071°03'0 0.0
2017-Jun-18 13:29N 42°21' W 071°03'0 0.0
2017-Jun-18 12:59N 42°21' W 071°03'0 0.0
2017-Jun-18 12:29N 42°21' W 071°03'0 0.0
2017-Jun-18 11:59N 42°21' W 071°03'0 0.0
2017-Jun-18 11:29N 42°21' W 071°03'0 0.0
2017-Jun-18 10:59N 42°21' W 071°03'0 0.0
2017-Jun-18 10:29N 42°21' W 071°03'0 0.0
2017-Jun-18 09:59N 42°21' W 071°03'0 0.0
2017-Jun-18 09:29N 42°21' W 071°03'0 0.0
2017-Jun-18 08:59N 42°21' W 071°03'0 0.0
2017-Jun-18 08:29N 42°21' W 071°03'0 0.0
2017-Jun-18 07:59N 42°21' W 071°03'0 0.0
2017-Jun-18 07:29N 42°21' W 071°03'0 0.0
2017-Jun-18 06:59N 42°21' W 071°03'0 0.0
2017-Jun-18 06:29N 42°21' W 071°03'0 0.0
2017-Jun-18 05:59N 42°21' W 071°03'0 0.0
2017-Jun-18 05:29N 42°21' W 071°03'0 0.0
2017-Jun-18 04:59N 42°21' W 071°03'0 0.0
2017-Jun-18 04:29N 42°21' W 071°03'0 0.0
2017-Jun-18 03:59N 42°21' W 071°03'0 0.0
2017-Jun-18 03:29N 42°21' W 071°03'0 0.0
2017-Jun-18 02:59N 42°21' W 071°03'0 0.0
2017-Jun-18 02:29N 42°21' W 071°03'0 0.0
2017-Jun-18 01:59N 42°21' W 071°03'0 0.0
2017-Jun-18 01:26N 42°21' W 071°03'0 0.0
2017-Jun-18 00:59N 42°21' W 071°03'0 0.0
2017-Jun-18 00:29N 42°21' W 071°03'0 0.0
2017-Jun-17 23:59N 42°21' W 071°03'0 0.0
2017-Jun-17 23:29N 42°21' W 071°03'0 0.0
2017-Jun-17 22:59N 42°21' W 071°03'0 0.0
2017-Jun-17 22:26N 42°21' W 071°03'0 0.0
2017-Jun-17 21:59N 42°21' W 071°03'0 0.0
2017-Jun-17 21:29N 42°21' W 071°03'0 0.0
2017-Jun-17 20:59N 42°21' W 071°03'0 0.0
2017-Jun-17 20:29N 42°21' W 071°03'0 0.0
2017-Jun-17 19:59N 42°21' W 071°03'0 0.0
2017-Jun-17 19:29N 42°21' W 071°03'0 0.0
2017-Jun-17 18:59N 42°21' W 071°03'0 0.0
2017-Jun-17 18:29N 42°21' W 071°03'0 0.0
2017-Jun-17 17:59N 42°21' W 071°03'0 0.0
2017-Jun-17 17:26N 42°21' W 071°03'0 0.0
2017-Jun-17 16:59N 42°21' W 071°03'0 0.0
2017-Jun-17 16:30N 42°21' W 071°03'1 1.0
2017-Jun-17 16:00N 42°22' W 071°03'2 3.4
2017-Jun-17 15:30N 42°21' W 071°01'3 5.2
2017-Jun-17 15:00N 42°20' W 070°57'3 6.6
2017-Jun-17 14:30N 42°22' W 070°54'2 2.2
2017-Jun-17 13:30N 42°24' W 070°52'0 0.0
2017-Jun-17 12:58N 42°24' W 070°52'0 0.1
2017-Jun-17 12:30N 42°24' W 070°52'0 0.1
2017-Jun-17 11:59N 42°24' W 070°52'0 0.0
2017-Jun-17 11:29N 42°24' W 070°52'0 0.0
2017-Jun-17 10:59N 42°24' W 070°52'0 0.0
2017-Jun-17 10:30N 42°24' W 070°52'0 0.0
2017-Jun-17 10:00N 42°24' W 070°52'0 0.0
2017-Jun-17 09:30N 42°24' W 070°52'0 0.0
2017-Jun-17 09:00N 42°24' W 070°52'0 0.0
2017-Jun-17 08:30N 42°24' W 070°52'0 0.0
2017-Jun-17 08:00N 42°24' W 070°52'0 0.0
2017-Jun-17 07:30N 42°24' W 070°52'0 0.0
2017-Jun-17 07:00N 42°24' W 070°52'0 0.0
2017-Jun-17 06:30N 42°24' W 070°52'0 0.0
2017-Jun-17 06:00N 42°24' W 070°52'0 0.0
2017-Jun-17 05:30N 42°24' W 070°52'0 0.0
2017-Jun-17 05:00N 42°24' W 070°52'0 0.0
2017-Jun-17 04:30N 42°24' W 070°52'0 0.0
2017-Jun-17 04:00N 42°24' W 070°52'0 0.0
2017-Jun-17 03:31N 42°24' W 070°52'0 0.0
2017-Jun-17 03:00N 42°24' W 070°52'0 0.0
2017-Jun-17 02:30N 42°24' W 070°52'0 0.0
2017-Jun-17 02:00N 42°24' W 070°52'0 0.0
2017-Jun-17 01:28N 42°24' W 070°52'0 0.0
2017-Jun-17 00:59N 42°24' W 070°52'0 0.0
2017-Jun-17 00:31N 42°24' W 070°52'0 0.0
2017-Jun-16 23:58N 42°24' W 070°52'0 0.0
2017-Jun-16 23:28N 42°24' W 070°52'0 0.0
2017-Jun-16 22:58N 42°24' W 070°52'0 0.0
2017-Jun-16 22:28N 42°24' W 070°52'0 0.0
2017-Jun-16 21:55N 42°24' W 070°52'0 0.1
2017-Jun-16 21:28N 42°24' W 070°52'0 0.0
2017-Jun-16 20:55N 42°24' W 070°52'0 0.0
2017-Jun-16 20:30N 42°24' W 070°52'0 0.0
2017-Jun-16 20:00N 42°24' W 070°52'0 0.0
2017-Jun-16 19:30N 42°24' W 070°52'0 0.0
2017-Jun-16 19:00N 42°24' W 070°52'0 0.0
2017-Jun-16 18:27N 42°24' W 070°52'0 0.0
2017-Jun-16 17:59N 42°24' W 070°52'0 0.0
2017-Jun-16 17:29N 42°24' W 070°52'0 0.0
2017-Jun-16 16:59N 42°24' W 070°52'0 0.0
2017-Jun-16 16:30N 42°24' W 070°52'0 0.0
2017-Jun-16 15:58N 42°24' W 070°52'0 0.0
2017-Jun-16 15:25N 42°24' W 070°52'0 0.0
2017-Jun-16 14:58N 42°24' W 070°52'0 0.0
2017-Jun-16 13:58N 42°24' W 070°52'0 0.0
2017-Jun-16 13:25N 42°24' W 070°52'0 0.0
2017-Jun-16 12:58N 42°24' W 070°52'0 0.3
2017-Jun-16 12:31N 42°24' W 070°52'2 3.7
2017-Jun-16 12:00N 42°25' W 070°50'2 3.8
2017-Jun-16 11:31N 42°26' W 070°48'2 4.0
2017-Jun-16 11:00N 42°28' W 070°46'2 4.9
2017-Jun-16 10:31N 42°29' W 070°44'4 7.2
2017-Jun-16 10:00N 42°33' W 070°41'3 5.5
2017-Jun-16 09:30N 42°35' W 070°41'0 0.7
2017-Jun-16 08:56N 42°36' W 070°40'0 0.0
2017-Jun-16 08:29N 42°36' W 070°40'0 0.0
2017-Jun-16 07:59N 42°35' W 070°40'0 0.0
2017-Jun-16 07:26N 42°36' W 070°40'0 0.0
2017-Jun-16 06:59N 42°36' W 070°40'0 0.0
2017-Jun-16 06:29N 42°36' W 070°40'0 0.0
2017-Jun-16 05:50N 42°35' W 070°40'0 0.0
2017-Jun-16 05:29N 42°35' W 070°40'0 0.0
2017-Jun-16 04:59N 42°36' W 070°40'0 0.0
2017-Jun-16 04:29N 42°36' W 070°40'0 0.0
2017-Jun-16 03:59N 42°36' W 070°40'0 0.0
2017-Jun-16 03:29N 42°36' W 070°40'0 0.0
2017-Jun-16 02:56N 42°36' W 070°40'0 0.0
2017-Jun-16 02:29N 42°36' W 070°40'0 0.0
2017-Jun-16 01:59N 42°36' W 070°40'0 0.0
2017-Jun-16 01:29N 42°36' W 070°40'0 0.0
2017-Jun-16 00:59N 42°35' W 070°40'0 0.0
2017-Jun-16 00:26N 42°36' W 070°40'0 0.0
2017-Jun-15 23:56N 42°36' W 070°40'0 0.0
2017-Jun-15 23:29N 42°35' W 070°40'0 0.0
2017-Jun-15 22:59N 42°35' W 070°40'0 0.0
2017-Jun-15 22:30N 42°35' W 070°40'0 0.0
2017-Jun-15 22:00N 42°35' W 070°40'0 0.1
2017-Jun-15 21:30N 42°35' W 070°40'1 2.9
2017-Jun-15 21:00N 42°34' W 070°41'2 3.5
2017-Jun-15 20:30N 42°32' W 070°41'1 1.1
2017-Jun-15 20:00N 42°33' W 070°41'1 2.6
2017-Jun-15 19:30N 42°34' W 070°40'5 9.2
2017-Jun-15 19:00N 42°37' W 070°35'0 1.0
2017-Jun-15 18:30N 42°36' W 070°35'510.3
2017-Jun-15 18:00N 42°33' W 070°40'510.2
2017-Jun-15 17:30N 42°29' W 070°45'2 3.8
2017-Jun-15 17:00N 42°30' W 070°43'5 9.4
2017-Jun-15 16:30N 42°31' W 070°37'4 7.6
2017-Jun-15 16:00N 42°35' W 070°34'1 2.8
2017-Jun-15 15:30N 42°35' W 070°36'2 4.8
2017-Jun-15 15:00N 42°34' W 070°39'2 2.0
2017-Jun-15 14:00N 42°36' W 070°40'1 2.3
2017-Jun-15 13:30N 42°35' W 070°41'2 4.7
2017-Jun-15 13:00N 42°34' W 070°38'2 4.7
2017-Jun-15 12:30N 42°34' W 070°35'2 4.7
2017-Jun-15 12:00N 42°34' W 070°32'2 4.9
2017-Jun-15 11:30N 42°34' W 070°28'2 4.2
2017-Jun-15 11:00N 42°34' W 070°26'2 4.8
2017-Jun-15 10:30N 42°35' W 070°22'2 4.6
2017-Jun-15 10:00N 42°34' W 070°19'2 4.3
2017-Jun-15 09:30N 42°35' W 070°16'2 4.0
2017-Jun-15 09:00N 42°35' W 070°14'2 3.9
2017-Jun-15 08:30N 42°35' W 070°11'2 4.1
2017-Jun-15 08:00N 42°36' W 070°08'2 4.2
2017-Jun-15 07:30N 42°36' W 070°05'2 4.4
2017-Jun-15 07:00N 42°36' W 070°03'2 4.2
2017-Jun-15 06:30N 42°37' W 069°60'2 4.4
2017-Jun-15 06:00N 42°37' W 069°57'2 4.4
2017-Jun-15 05:30N 42°38' W 069°54'2 4.4
2017-Jun-15 05:00N 42°38' W 069°51'2 4.4
2017-Jun-15 04:30N 42°38' W 069°48'8 4.1
2017-Jun-15 02:35N 42°38' W 069°37'1 4.1
2017-Jun-15 02:27N 42°38' W 069°37'2 4.1
2017-Jun-15 02:00N 42°38' W 069°34'2 4.0
2017-Jun-15 01:30N 42°38' W 069°31'2 3.9
2017-Jun-15 01:00N 42°38' W 069°29'2 4.1
2017-Jun-15 00:30N 42°38' W 069°26'  

Dump ship's entire track history